Home > Weather > Reno > Past weeks

Flag for USA Past Weather in Reno, Nevada, USA — Yesterday and Last 2 Weeks

Now
58 °F

Passing clouds.


Feels Like: 58 °F
Forecast: 51 / 81 °F
Wind: No wind

Location: Reno Tahoe International Airport

Current Time: May 29, 2016 at 8:38:29 AM

Latest Report: May 29, 2016 at 7:55 AM


Visibility: 10 mi

Pressure: 29.97 "Hg (25.46 "Hg at 1372m altitude)

Humidity: 47%

Dew Point: 38 °F

Location of RenoLocation

Past Weather in Reno — Graph

°F

Reno Temperature Yesterday

Maximum temperature yesterday: 79 °F (at 3:55 PM)
Minimum temperature yesterday: 49 °F (at 5:55 AM)
Average temperature yesterday: 64 °F

High & Low Weather Summary for the Past Weeks

 TemperatureHumidityPressure
High81 °F (May 18, 2:55 PM)73% (May 22, 5:55 AM)30.08 "Hg (May 22, 5:55 AM)
Low37 °F (May 22, 5:55 AM)10% (May 19, 4:55 PM)29.41 "Hg (May 20, 4:55 AM)
Average59 °F42%29.87 "Hg
* Reported May 14 6:55 AM — May 29 6:55 AM, Reno, Weather by CustomWeather, © 2016

Note: Actual official high and low records may vary slightly from our data, if they occured in-between our weather recording intervals... More about our weather records

Advertising

Reno Weather History for the Previous 24 Hours

Scroll right to see more
 ConditionsComfort  
Time TempWeatherWind HumidityBarometerVisibility
6:55 AM
Sun, May 29
53 °FPassing clouds.No wind56%29.97 "Hg10 mi
5:55 AM51 °FPassing clouds.No wind61%29.95 "Hg10 mi
4:55 AM54 °FPassing clouds.No wind53%29.92 "Hg10 mi
3:55 AM54 °FPassing clouds.No wind53%29.90 "Hg10 mi
2:55 AM57 °FPassing clouds.No wind47%29.90 "Hg10 mi
1:55 AM58 °FPassing clouds.5 mph50%29.90 "Hg10 mi
12:55 AM60 °FPassing clouds.5 mph44%29.89 "Hg10 mi
11:55 PM
Sat, May 28
62 °FPassing clouds.No wind39%29.89 "Hg10 mi
10:55 PM64 °FPartly cloudy.3 mph38%29.89 "Hg10 mi
9:55 PM65 °FPartly cloudy.7 mph37%29.88 "Hg10 mi
8:55 PM67 °FBroken clouds.10 mph33%29.88 "Hg10 mi
7:55 PM69 °FBroken clouds.18 mph31%29.87 "Hg10 mi
6:55 PM71 °FBroken clouds.25 mph31%29.85 "Hg10 mi
5:55 PM76 °FPartly sunny.13 mph19%29.81 "Hg10 mi
4:55 PM76 °FBroken clouds.3 mph18%29.81 "Hg10 mi
3:55 PM79 °FBroken clouds.6 mph17%29.80 "Hg10 mi
2:55 PM76 °FBroken clouds.3 mph18%29.82 "Hg10 mi
1:55 PM76 °FPartly sunny.No wind18%29.82 "Hg10 mi
12:55 PM73 °FPartly sunny.N/A19%29.84 "Hg10 mi
11:55 AM71 °FPartly sunny.3 mph19%29.87 "Hg10 mi
10:55 AM68 °FPartly sunny.5 mph22%29.89 "Hg10 mi
9:55 AM64 °FPartly sunny.3 mph27%29.91 "Hg10 mi
8:55 AM59 °FPartly sunny.No wind36%29.93 "Hg10 mi
Weather by CustomWeather, © 2016

See weather overviewHow to use our weather pages